| time (UTC) | temp C | wind direction | speed KPH | gust KPH | rain 1hr cm | rain 24hr cm | rain mn cm | humidity % | barometer mb |
| 20260507133310 | 15 | 180 | 3.2 | 9.7 | 0.00 | 0.18 | 0.03 | 60 | 1011.6 |
| 20260507130310 | 15 | 157 | 3.2 | 11.3 | 0.00 | 0.20 | 0.03 | 55 | 1011.8 |
| 20260507123309 | 15 | 180 | 3.2 | 9.7 | 0.00 | 0.20 | 0.03 | 61 | 1012.0 |
| 20260507120309 | 15 | 180 | 3.2 | 8.0 | 0.00 | 0.23 | 0.03 | 61 | 1012.2 |
| 20260507113309 | 15 | 157 | 0.0 | 3.2 | 0.00 | 0.23 | 0.03 | 57 | 1012.6 |
| 20260507103309 | 15 | 180 | 4.8 | 9.7 | 0.00 | 0.23 | 0.03 | 69 | 1012.9 |
| 20260507093309 | 14 | 157 | 8.0 | 12.9 | 0.00 | 0.23 | 0.03 | 71 | 1013.0 |
| 20260507083308 | 13 | 180 | 0.0 | 8.0 | 0.00 | 0.23 | 0.03 | 77 | 1012.5 |
| 20260507080308 | 12 | 0 | 0.0 | 0.0 | 0.00 | 0.23 | 0.03 | 80 | 1012.3 |
| 20260507073308 | 12 | 0 | 0.0 | 0.0 | 0.00 | 0.23 | 0.03 | 84 | 1012.3 |
| 20260507070308 | 11 | 0 | 0.0 | 0.0 | 0.00 | 0.23 | 0.03 | 84 | 1012.1 |
| 20260507063313 | 11 | 0 | 0.0 | 0.0 | 0.00 | 0.23 | 0.03 | 81 | 1012.1 |
| 20260507060313 | 9 | 0 | 0.0 | 0.0 | 0.00 | 0.23 | 0.03 | 89 | 1011.5 |
| 20260507053313 | 6 | 0 | 0.0 | 0.0 | 0.00 | 0.23 | 0.03 | 94 | 1010.7 |
| 20260507050313 | 6 | 0 | 0.0 | 0.0 | 0.00 | 0.23 | 0.03 | 93 | 1010.2 |
| 20260507043313 | 6 | 0 | 0.0 | 0.0 | 0.00 | 0.23 | 0.03 | 94 | 1010.5 |
| 20260507040313 | 6 | 0 | 0.0 | 0.0 | 0.00 | 0.23 | 0.03 | 94 | 1010.3 |
| 20260507033312 | 6 | 0 | 0.0 | 0.0 | 0.00 | 0.23 | 0.03 | 94 | 1010.2 |
| 20260507030312 | 6 | 0 | 0.0 | 0.0 | 0.00 | 0.23 | 0.03 | 94 | 1010.1 |
| 20260507023312 | 6 | 292 | 0.0 | 3.2 | 0.00 | 0.23 | 0.03 | 94 | 1010.1 |
| 20260507013313 | 7 | 0 | 0.0 | 0.0 | 0.00 | 0.23 | 0.03 | 95 | 1010.2 |
| 20260507010312 | 7 | 0 | 0.0 | 0.0 | 0.00 | 0.23 | 0.03 | 95 | 1010.2 |
| 20260507003312 | 7 | 0 | 0.0 | 0.0 | 0.00 | 0.23 | 0.03 | 95 | 1010.2 |
| 20260507000314 | 7 | 292 | 1.6 | 6.4 | 0.00 | 0.23 | 0.03 | 95 | 1010.6 |
| 20260506233312 | 7 | 292 | 3.2 | 6.4 | 0.00 | 0.23 | 0.03 | 96 | 1010.7 |
| 20260506220312 | 7 | 292 | 3.2 | 3.2 | 0.00 | 0.23 | 0.23 | 95 | 1010.3 |
| 20260506203311 | 8 | 315 | 1.6 | 4.8 | 0.03 | 0.23 | 0.23 | 95 | 1009.7 |
| 20260506200311 | 8 | 292 | 3.2 | 6.4 | 0.03 | 0.23 | 0.23 | 95 | 1009.8 |
| 20260506193311 | 9 | 0 | 0.0 | 0.0 | 0.05 | 0.20 | 0.20 | 96 | 1009.9 |
| 20260506190311 | 9 | 0 | 0.0 | 0.0 | 0.05 | 0.20 | 0.20 | 95 | 1009.2 |
| 20260506183311 | 10 | 0 | 0.0 | 0.0 | 0.05 | 0.15 | 0.15 | 95 | 1008.4 |
| 20260506180311 | 10 | 0 | 0.0 | 0.0 | 0.03 | 0.15 | 0.15 | 95 | 1008.6 |
| 20260506173311 | 10 | 0 | 0.0 | 0.0 | 0.00 | 0.13 | 0.13 | 94 | 1007.8 |
| 20260506170310 | 10 | 0 | 0.0 | 0.0 | 0.03 | 0.13 | 0.13 | 94 | 1007.6 |
| 20260506160310 | 10 | 0 | 0.0 | 0.0 | 0.03 | 0.10 | 0.10 | 94 | 1007.9 |
| 20260506153310 | 10 | 0 | 0.0 | 0.0 | 0.05 | 0.10 | 0.10 | 93 | 1008.0 |
| 20260506150311 | 11 | 0 | 0.0 | 0.0 | 0.03 | 0.08 | 0.08 | 92 | 1008.4 |
| 20260506140310 | 11 | 0 | 0.0 | 0.0 | 0.03 | 0.05 | 0.05 | 88 | 1008.6 |